| time (UTC) | temp C | wind direction | speed KPH | gust KPH | rain 1hr cm | rain 24hr cm | rain mn cm | humidity % | barometer mb |
| 20260503021615 | 5 | 310 | 8.0 | 14.5 | 0.00 | 0.08 | 0.00 | 86 | 1011.5 |
| 20260503020014 | 5 | 292 | 6.4 | 16.1 | 0.00 | 0.08 | 0.00 | 87 | 1011.4 |
| 20260503014512 | 5 | 325 | 6.4 | 12.9 | 0.00 | 0.08 | 0.00 | 87 | 1011.3 |
| 20260503013011 | 5 | 337 | 8.0 | 17.7 | 0.00 | 0.08 | 0.00 | 88 | 1011.2 |
| 20260503011510 | 5 | 328 | 9.7 | 19.3 | 0.00 | 0.08 | 0.00 | 88 | 1011.2 |
| 20260503010008 | 5 | 322 | 11.3 | 20.9 | 0.00 | 0.08 | 0.00 | 88 | 1011.2 |
| 20260503004505 | 6 | 329 | 12.9 | 20.9 | 0.00 | 0.08 | 0.00 | 88 | 1011.4 |
| 20260503003007 | 6 | 328 | 6.4 | 14.5 | 0.00 | 0.08 | 0.00 | 88 | 1011.4 |
| 20260503001502 | 6 | 355 | 8.0 | 17.7 | 0.00 | 0.08 | 0.00 | 88 | 1011.4 |
| 20260503000059 | 6 | 340 | 8.0 | 17.7 | 0.00 | 0.08 | 0.00 | 89 | 1011.5 |
| 20260502234557 | 6 | 292 | 6.4 | 14.5 | 0.00 | 0.08 | 0.00 | 89 | 1011.4 |
| 20260502233055 | 6 | 318 | 8.0 | 16.1 | 0.00 | 0.08 | 0.00 | 89 | 1011.4 |
| 20260502231553 | 7 | 311 | 9.7 | 19.3 | 0.00 | 0.08 | 0.00 | 89 | 1011.4 |
| 20260502230051 | 7 | 338 | 6.4 | 12.9 | 0.00 | 0.08 | 0.00 | 89 | 1011.5 |
| 20260502224549 | 7 | 316 | 6.4 | 14.5 | 0.00 | 0.08 | 0.00 | 89 | 1011.5 |
| 20260502223047 | 7 | 331 | 3.2 | 8.0 | 0.00 | 0.08 | 0.00 | 89 | 1011.4 |
| 20260502221644 | 7 | 334 | 3.2 | 16.1 | 0.00 | 0.08 | 0.00 | 89 | 1011.4 |
| 20260502220041 | 7 | 328 | 6.4 | 16.1 | 0.00 | 0.08 | 0.00 | 89 | 1011.3 |
| 20260502214537 | 7 | 350 | 11.3 | 17.7 | 0.00 | 0.08 | 0.08 | 88 | 1011.2 |
| 20260502213051 | 7 | 322 | 8.0 | 19.3 | 0.00 | 0.08 | 0.08 | 87 | 1011.4 |
| 20260502211535 | 7 | 333 | 9.7 | 14.5 | 0.00 | 0.08 | 0.08 | 87 | 1011.5 |
| 20260502210036 | 7 | 316 | 4.8 | 16.1 | 0.00 | 0.08 | 0.08 | 87 | 1011.3 |
| 20260502204535 | 7 | 313 | 8.0 | 14.5 | 0.00 | 0.08 | 0.08 | 86 | 1011.3 |
| 20260502203038 | 7 | 323 | 8.0 | 17.7 | 0.00 | 0.08 | 0.08 | 85 | 1011.5 |
| 20260502201527 | 8 | 289 | 8.0 | 12.9 | 0.00 | 0.08 | 0.08 | 84 | 1011.4 |
| 20260502200043 | 8 | 296 | 6.4 | 12.9 | 0.00 | 0.08 | 0.08 | 83 | 1011.4 |
| 20260502194523 | 8 | 279 | 6.4 | 11.3 | 0.00 | 0.08 | 0.08 | 81 | 1011.2 |
| 20260502193024 | 8 | 313 | 3.2 | 14.5 | 0.00 | 0.08 | 0.08 | 81 | 1010.9 |
| 20260502191523 | 8 | 331 | 6.4 | 19.3 | 0.00 | 0.08 | 0.08 | 80 | 1010.9 |
| 20260502190020 | 9 | 276 | 4.8 | 11.3 | 0.00 | 0.08 | 0.08 | 83 | 1010.9 |
| 20260502184523 | 9 | 321 | 3.2 | 16.1 | 0.00 | 0.08 | 0.08 | 82 | 1010.9 |
| 20260502183017 | 9 | 344 | 11.3 | 17.7 | 0.00 | 0.08 | 0.08 | 82 | 1010.8 |
| 20260502181522 | 9 | 325 | 11.3 | 17.7 | 0.00 | 0.08 | 0.08 | 82 | 1010.7 |
| 20260502163007 | 10 | 335 | 6.4 | 12.9 | 0.00 | 0.08 | 0.08 | 77 | 1010.7 |
| 20260502161505 | 10 | 331 | 4.8 | 14.5 | 0.00 | 0.08 | 0.08 | 77 | 1010.7 |
| 20260502151611 | 11 | 321 | 8.0 | 16.1 | 0.00 | 0.08 | 0.08 | 72 | 1011.2 |
| 20260502150158 | 11 | 325 | 6.4 | 16.1 | 0.00 | 0.08 | 0.08 | 71 | 1011.3 |
| 20260502123043 | 8 | 344 | 9.7 | 16.1 | 0.05 | 0.08 | 0.08 | 79 | 1012.5 |
| 20260502121541 | 8 | 323 | 4.8 | 12.9 | 0.08 | 0.08 | 0.08 | 78 | 1012.5 |
| 20260502114540 | 9 | 321 | 3.2 | 6.4 | 0.05 | 0.05 | 0.05 | 74 | 1012.6 |
| 20260502113046 | 10 | 308 | 1.6 | 4.8 | 0.05 | 0.05 | 0.05 | 74 | 1012.6 |
| 20260502111542 | 10 | 262 | 0.0 | 4.8 | 0.00 | 0.00 | 0.00 | 72 | 1012.4 |
| 20260502110037 | 10 | 333 | 0.0 | 4.8 | 0.00 | 0.00 | 0.00 | 74 | 1012.2 |
| 20260502104534 | 10 | 329 | 1.6 | 6.4 | 0.00 | 0.00 | 0.00 | 73 | 1012.3 |
| 20260502103056 | 10 | 328 | 0.0 | 0.0 | 0.00 | 0.00 | 0.00 | 70 | 1012.7 |
| 20260502101545 | 10 | 344 | 0.0 | 0.0 | 0.00 | 0.00 | 0.00 | 72 | 1012.8 |
| 20260502091526 | 10 | 331 | 1.6 | 4.8 | 0.00 | 0.00 | 0.00 | 73 | 1013.1 |
| 20260502071521 | 10 | 126 | 0.0 | 0.0 | 0.00 | 0.00 | 0.00 | 68 | 1013.4 |
| 20260502070019 | 10 | 103 | 0.0 | 4.8 | 0.00 | 0.00 | 0.00 | 59 | 1013.2 |
| 20260502064518 | 10 | 69 | 1.6 | 6.4 | 0.00 | 0.00 | 0.00 | 58 | 1013.1 |
| 20260502063018 | 11 | 92 | 1.6 | 6.4 | 0.00 | 0.00 | 0.00 | 59 | 1013.1 |
| 20260502061517 | 11 | 34 | 0.0 | 3.2 | 0.00 | 0.00 | 0.00 | 64 | 1013.3 |
| 20260502060017 | 11 | 43 | 0.0 | 3.2 | 0.00 | 0.00 | 0.00 | 63 | 1013.3 |
| 20260502054515 | 10 | 355 | 0.0 | 0.0 | 0.00 | 0.00 | 0.00 | 61 | 1013.2 |
| 20260502053012 | 10 | 60 | 0.0 | 0.0 | 0.00 | 0.00 | 0.00 | 64 | 1013.3 |
| 20260502051512 | 8 | 53 | 0.0 | 0.0 | 0.00 | 0.00 | 0.00 | 68 | 1013.4 |
| 20260502050009 | 8 | 111 | 0.0 | 0.0 | 0.00 | 0.00 | 0.00 | 71 | 1013.6 |
| 20260502044507 | 8 | 30 | 0.0 | 0.0 | 0.00 | 0.00 | 0.00 | 66 | 1013.8 |
| 20260502043007 | 8 | 30 | 0.0 | 0.0 | 0.00 | 0.00 | 0.00 | 66 | 1013.7 |
| 20260502041504 | 8 | 37 | 0.0 | 0.0 | 0.00 | 0.00 | 0.00 | 61 | 1013.9 |
| 20260502040002 | 8 | 37 | 0.0 | 0.0 | 0.00 | 0.00 | 0.00 | 61 | 1014.3 |
| 20260502034603 | 8 | 37 | 0.0 | 0.0 | 0.00 | 0.00 | 0.00 | 62 | 1014.3 |
| 20260502034501 | 8 | 37 | 0.0 | 0.0 | 0.00 | 0.00 | 0.00 | 62 | 1014.3 |
| 20260502033100 | 8 | 74 | 0.0 | 0.0 | 0.00 | 0.00 | 0.00 | 63 | 1014.3 |
| 20260502031558 | 8 | 63 | 0.0 | 4.8 | 0.00 | 0.00 | 0.00 | 64 | 1014.5 |
| 20260502030106 | 8 | 44 | 0.0 | 3.2 | 0.00 | 0.00 | 0.00 | 63 | 1014.7 |
| 20260502024552 | 8 | 63 | 0.0 | 1.6 | 0.00 | 0.00 | 0.00 | 62 | 1014.9 |
| 20260502023056 | 8 | 67 | 0.0 | 0.0 | 0.00 | 0.00 | 0.00 | 63 | 1015.2 |